Terminal Aerodrome Forecast
Issued by NWS

Home | Current Version | Previous Version | Text Only | Print | Product List | Glossary On
Versions: 1 2 3 4 5 6 7 8 9 10 11 12 13 14 15 16 17 18 19 20 21 22 23 24 25 26 27 28 29
000
FTUS44 KFWD 142300
TAFAFW
TAF
KAFW 142321Z 1500/1524 10003KT P6SM SCT030 BKN200
     FM151200 12004KT P6SM BKN020
     FM151700 15005KT P6SM SCT030 BKN150=

USA.gov is the U.S. government's official web portal to all federal, state and local government web resources and services.